Regional Weather Roundup
Issued by NWS

Home | Current Version | Previous Version | Text Only | Print | Product List | Glossary Off
Versions: 1 2 3 4 5 6 7 8 9 10 11 12 13 14 15 16 17 18 19 20 21 22 23 24 25 26 27 28 29 30 31 32 33 34 35 36 37 38 39 40 41 42 43 44 45 46 47 48 49 50

000
ASUS43 KMKX 251121
RWRWI

WISCONSIN REGIONAL WEATHER ROUNDUP
NATIONAL WEATHER SERVICE MILWAUKEE/SULLIVAN WI
500 AM CST SAT FEB 25 2017

NOTE: "FAIR" INDICATES FEW OR NO CLOUDS BELOW 12,000 FEET WITH NO
SIGNIFICANT WEATHER AND/OR OBSTRUCTIONS TO VISIBILITY.

WIZ001-002-006>008-014>016-023>028-251200-
NORTHWEST WISCONSIN

CITY           SKY/WX    TMP DP  RH WIND       PRES   REMARKS
SUPERIOR ARPT  MOCLDY    10   4  75 NW15      29.88R WCI  -6
ASHLAND        CLOUDY    14   7  73 NW10      29.77S WCI   1
HAYWARD        CLOUDY    12   3  67 NW8G21    29.77R WCI   0
SIREN          CLEAR     12   4  71 NW10      29.85S WCI  -2
CUMBERLAND     PTCLDY    12   3  67 NW13      29.80R WCI  -3
RICE LAKE      MOCLDY    13   4  68 NW15      29.82R WCI  -3
CHETEK         CLOUDY    13   5  70 NW9       29.80R WCI   1
LADYSMITH      MOCLDY    13   5  70 NW16G22   29.76R WCI  -3
EAU CLAIRE     CLEAR     13   4  67 W15       29.80R WCI  -3
MENOMONIE      CLEAR     14   4  63 W14G20    29.83R WCI  -1
NEW RICHMOND   PTCLDY    14   4  64 NW15G22   29.86R WCI  -1
OSCEOLA        PTCLDY    15   5  65 NW17      29.90S WCI  -2
$$

WIZ003>005-009-010-017-018-251200-
NORTH CENTRAL WISCONSIN

CITY           SKY/WX    TMP DP  RH WIND       PRES   REMARKS
MANITOWISH WTR LGT SNOW  13  10  87 NW18G25   29.62R WCI  -5
ARBOR VITAE    LGT SNOW  17  12  82 NW15G24     N/A  WCI   2
WOODRUFF       LGT SNOW  17  12  82 NW15G24     N/A  WCI   2
RHINELANDER    LGT SNOW  16  10  77 NW10G23   29.60R WCI   4
EAGLE RIVER    LGT SNOW  14   9  79 NW13G18   29.58R WCI   0
LAND O LAKES   LGT SNOW  14  10  84 NW10      29.59R WCI   1
PHILLIPS       CLOUDY    12   6  77 NW9G17    29.67R WCI   0
TOMAHAWK       CLOUDY    14   8  76 NW13G24   29.64R WCI   0
MEDFORD        CLOUDY    13   6  73 NW12      29.66R WCI  -1
MERRILL        NOT AVBL
$$

WIZ029-030-035-036-043>047-251200-
CENTRAL WISCONSIN

CITY           SKY/WX    TMP DP  RH WIND       PRES   REMARKS
WAUSAU         FLURRIES  16   9  74 NW16G26   29.63R WCI   1
MOSINEE        LGT SNOW  16  12  86 NW15G24   29.66R WCI   1
MARSHFIELD     FLURRIES  15   6  67 NW20G26   29.68R WCI  -2
STEVENS POINT  LGT SNOW  15  11  85 NW9       29.67R WCI   3
WAUPACA        LGT SNOW  20  16  82 W6        29.67R WCI  13
WAUTOMA        LGT SNOW  17  14  88 NW14      29.70R FOG     WCI   3
WISC RAPIDS    FLURRIES  16  11  80 NW16G24   29.71R WCI   1
CAMP DOUGLAS   CLOUDY    18  10  73 W10       29.74R WCI   6
$$

WIZ011>013-019>022-031-037>040-048>050-251200-
NORTHEAST WISCONSIN

CITY           SKY/WX    TMP DP  RH WIND       PRES   REMARKS
ANTIGO         LGT SNOW  15  10  83 NW10      29.59R WCI   2
SHAWANO        LGT SNOW  20  16  84 CALM      29.63S
OCONTO         CLOUDY    19  16  86 NW8       29.59R WCI   9
STURGEON BAY   LGT SNOW  20  17  88 NW16G22   29.56R FOG     WCI   6
GREEN BAY      LGT SNOW  20  18  92 W17       29.61R FOG     WCI   5
MANITOWOC      LGT SNOW  21  18  88 NW17      29.59R FOG     WCI   7
APPLETON       LGT SNOW  19  14  79 NW10      29.61R WCI   8
CLINTONVILLE   LGT SNOW  19  16  86 NW10      29.64R WCI   8
OSHKOSH        LGT SNOW  19  15  84 NW14      29.63R FOG     WCI   6
$$

WIZ032>034-041-042-053>061-251200-
SOUTHWEST WISCONSIN

CITY           SKY/WX    TMP DP  RH WIND       PRES   REMARKS
LA CROSSE      PTCLDY    19   8  62 NW17      29.82R WCI   4
SPARTA         MOCLDY    17  10  74 NW15G24   29.79R WCI   2
VIROQUA        CLOUDY    17  11  77 NW18      29.75R WCI   0
BOSCOBEL       FLURRIES  21  14  74 W7        29.80R WCI  12
PRAIRIE DU CHI PTCLDY    20  10  65 NW17      29.83R WCI   5
PLATTEVILLE    PTCLDY    19  18  93 NW5       29.77R WCI  13
$$

WIZ056-057-062-063-064-067-068-251200-
SOUTH CENTRAL WISCONSIN

CITY           SKY/WX    TMP DP  RH WIND       PRES   REMARKS
REEDSBURG      LGT SNOW  17  14  87 NW9       29.74R WCI   6
BARABOO/DELLS  LGT SNOW  17  14  88 NW9       29.72R WCI   5
LONE ROCK      CLOUDY    20  12  71 NW13G22   29.78R WCI   7
MINERAL POINT  LGT SNOW  21  18  86 CALM      29.74R
MADISON        LGT SNOW  18  14  84 NW12G20   29.71R FOG     WCI   5
MIDDLETON      CLOUDY    19  16  88 NW8       29.72R WCI   9
WATERTOWN      CLOUDY    19  17  93 NW12G21   29.67R FOG     WCI   6
MONROE         PTCLDY    19  16  86 NW15G22   29.72R WCI   5
JANESVILLE     CLOUDY    21  19  93 NW13G18   29.70R FOG     WCI   9
$$

WIZ051-052-058>065-066-070>072-251200-
SOUTHEAST WISCONSIN

CITY           SKY/WX    TMP DP  RH WIND       PRES   REMARKS
MILWAUKEE      LGT SNOW  23  17  78 W15       29.63R WCI  10
WAUKESHA       CLOUDY    19  16  86 W18       29.64R WCI   4
MILWAUKEE/TIMM LGT SNOW  21  18  86 NW17      29.64R WCI   7
RACINE         LGT SNOW  23  17  78 W8        29.65R WCI  14
KENOSHA        CLOUDY    23  16  74 NW12G22   29.65R WCI  12
FOND DU LAC    LGT SNOW  20  14  77 NW20      29.64R WCI   4
SHEBOYGAN      LGT SNOW  21  16  81 NW16      29.59R WCI   7
WEST BEND      LGT SNOW  21  19  93 NW5       29.61R WCI  15
JUNEAU         LGT SNOW  18  15  89 W6        29.67R WCI   9
$$

LSZ147-162-251200-
LAKE SUPERIOR

STATION/POSITION TIME  TEMP    WIND        PRES    WAVE
                       AIR SEA DIR/SP/G            HT/PER
                 (UTC) (F)     (DEG/KT/KT) (MB)    (FT/S)
DEVILS ISLAND    1100   18     330/ 20/ 22 1009.0S
PORT WING        1030   16     320/ 20/ 24 1009.8S
SAXON HARBOR     1040   20     320/ 19/ 25 1007.1S
$$

LMZ867-665-643>646-251200-
LAKE MICHIGAN

STATION/POSITION TIME  TEMP    WIND        PRES    WAVE
                       AIR SEA DIR/SP/G            HT/PER
                 (UTC) (F)     (DEG/KT/KT) (MB)    (FT/S)
CHAMBERS ISLAND  1040   21     300/  2/  3 1000.0R
NORTHPORT PIER   1110   22     300/  2/  3  999.3
SISTER BAY       1035   21        CALM       N/A
KEWAUNEE LAKESHO 1054   20     310/ 13/ 17 1000.8R
SHEBOYGAN LAKESH 1100   21     290/  6/  7 1002.8R
PORT WASHINGTON  1030   22     290/  8/ 14 1004.1R
MILWAUKEE LAKESH 1100   22     290/ 11/ 14   N/A
KENOSHA   LAKESH 1100   23     300/ 13/ 21 1004.4
$$

TC  - TEMPERATURE IN CELSIUS
VSB - VISIBILITY IN STATUTE MILES
WCI - WIND CHILL INDEX
HX  - HEAT INDEX




USA.gov is the U.S. government's official web portal to all federal, state and local government web resources and services.